Blue Grotto — WDE6956 — position and weather

sailwx.info

Track history (hours):
 
Tides and Currents Weather Stations Pressure Air Temp Water Temp Dewpoint Dewpoint Depression Visibility Wind Speed Wind Dir Waves Ship Positions

Blue Grotto

Owner: Waterwood LLC, Newport, RI. More information available from US FCC via Universal Licensing System and Coast Guard Vessel Documentation Center.

Last reported at 2017-Jan-27 20:16 UTC. Time now 2017-Feb-25 07:28 UTC.
Position N 26°04' W 080°08'.
Warning: this ship's position is 28 days out of date.

Length 19 m.

Type: Pleasure craft. MMSI: 367387040.

Date/timePositionNaut miles runAvg speedWind from/ knotsBaromVisibWave heightAir tempDewpointWater temp
2017-Jan-27 20:16N 26°04' W 080°08'3 4.3
2017-Jan-27 19:33N 26°06' W 080°05'4 3.7
2017-Jan-27 18:33N 26°02' W 080°05'7 7.0
2017-Jan-27 17:33N 25°55' W 080°04'4 4.2
2017-Jan-27 16:31N 25°53' W 080°09'5 5.6
2017-Jan-27 15:33N 25°47' W 080°09'3 3.3
2017-Jan-27 14:33N 25°45' W 080°11'4 4.2
2017-Jan-27 13:33N 25°41' W 080°10'1 0.1
2017-Jan-26 23:34N 25°41' W 080°11'6 1.3
2017-Jan-26 19:27N 25°36' W 080°13'6 7.1
2017-Jan-26 18:33N 25°42' W 080°11'5 4.8
2017-Jan-26 17:33N 25°46' W 080°08'1 1.3
2017-Jan-26 16:33N 25°46' W 080°07'7 7.2
2017-Jan-26 15:33N 25°52' W 080°05'8 7.3
2017-Jan-26 14:29N 26°00' W 080°05'5 5.9
2017-Jan-26 13:34N 26°05' W 080°07'  
2017-Jan-19 21:25N 26°04' W 080°08'4 4.3
2017-Jan-19 20:26N 25°59' W 080°07'5 5.8
2017-Jan-19 19:33N 25°54' W 080°08'0 0.2
2017-Jan-19 18:31N 25°54' W 080°08'0 0.0
2017-Jan-19 17:31N 25°54' W 080°08'2 1.8
2017-Jan-19 16:31N 25°55' W 080°06'8 7.5
2017-Jan-19 15:30N 26°03' W 080°06'  
Track history (hours):
 
Tides and Currents Weather Stations Pressure Air Temp Water Temp Dewpoint Dewpoint Depression Visibility Wind Speed Wind Dir Waves Ship Positions

Blue Grotto

Owner: Waterwood LLC, Newport, RI. More information available from US FCC via Universal Licensing System and Coast Guard Vessel Documentation Center.

Last reported at 2017-Jan-27 20:16 UTC. Time now 2017-Feb-25 07:28 UTC.
Position N 26°04' W 080°08'.
Warning: this ship's position is 28 days out of date.

Length 19 m.

Type: Pleasure craft. MMSI: 367387040.

Date/timePositionNaut miles runAvg speedWind from/ knotsBaromVisibWave heightAir tempDewpointWater temp
2017-Jan-27 20:16N 26°04' W 080°08'3 4.3
2017-Jan-27 19:33N 26°06' W 080°05'4 3.7
2017-Jan-27 18:33N 26°02' W 080°05'7 7.0
2017-Jan-27 17:33N 25°55' W 080°04'4 4.2
2017-Jan-27 16:31N 25°53' W 080°09'5 5.6
2017-Jan-27 15:33N 25°47' W 080°09'3 3.3
2017-Jan-27 14:33N 25°45' W 080°11'4 4.2
2017-Jan-27 13:33N 25°41' W 080°10'1 0.1
2017-Jan-26 23:34N 25°41' W 080°11'6 1.3
2017-Jan-26 19:27N 25°36' W 080°13'6 7.1
2017-Jan-26 18:33N 25°42' W 080°11'5 4.8
2017-Jan-26 17:33N 25°46' W 080°08'1 1.3
2017-Jan-26 16:33N 25°46' W 080°07'7 7.2
2017-Jan-26 15:33N 25°52' W 080°05'8 7.3
2017-Jan-26 14:29N 26°00' W 080°05'5 5.9
2017-Jan-26 13:34N 26°05' W 080°07'  
2017-Jan-19 21:25N 26°04' W 080°08'4 4.3
2017-Jan-19 20:26N 25°59' W 080°07'5 5.8
2017-Jan-19 19:33N 25°54' W 080°08'0 0.2
2017-Jan-19 18:31N 25°54' W 080°08'0 0.0
2017-Jan-19 17:31N 25°54' W 080°08'2 1.8
2017-Jan-19 16:31N 25°55' W 080°06'8 7.5
2017-Jan-19 15:30N 26°03' W 080°06'  

Dump ship's entire track history